Miscellaneous Local Product
Issued by NWS Hastings, NE

Home | Current Version | Previous Version | Graphics & Text | Print | Product List | Glossary On
Versions: 1 2 3 4 5 6 7 8 9 10 11 12 13 14 15 16 17 18 19 20 21 22 23 24 25 26 27 28 29 30 31 32 33 34 35 36 37 38 39 40 41 42 43 44 45 46 47 48 49 50
000
AXUS43 KGID 212202
MISGRI

GID CWA HOURLY WEATHER ROUNDUP
NATIONAL WEATHER SERVICE HASTINGS NE
500 PM CDT TUE OCT 21 2014

NOTE: "FAIR" INDICATES FEW OR NO CLOUDS BELOW 12,000 FEET WITH NO
SIGNIFICANT WEATHER AND/OR OBSTRUCTIONS TO VISIBILITY.

...SOUTH CENTRAL NEBRASKA...

CITY           SKY/WX    TMP DP  RH WIND       PRES   REMARKS
GRAND ISLAND   SUNNY     76  50  40 S13       29.98S
HASTINGS       SUNNY     75  49  39 S16G22    29.98S
KEARNEY        SUNNY     75  52  43 SE18      29.97F
ORD            SUNNY     75  45  34 S16G23    29.93F
YORK           SUNNY     75  41  29 S13G18    29.99F
AURORA         HAZE      76  37  23 S10G18    29.99S VSB 3/4
LEXINGTON      SUNNY     77  56  48 S20G25    29.93F
HOLDREGE       SUNNY     75  53  46 S16       29.95F
HEBRON         SUNNY     77  39  25 S12G17    30.00S

...NEBRASKA PANHANDLE...

CITY           SKY/WX    TMP DP  RH WIND       PRES   REMARKS
CHADRON        MOSUNNY   79  46  31 S16       29.77F
ALLIANCE       SUNNY     75  44  33 S16       29.86F
SCOTTSBLUFF    MOSUNNY   76  42  29 SE10      29.85F
SIDNEY         SUNNY     77  43  29 S13       29.88F

...WESTERN AND NORTH CENTRAL NEBRASKA...

CITY           SKY/WX    TMP DP  RH WIND       PRES   REMARKS
VALENTINE      SUNNY     77  50  38 S25G32    29.85F
AINSWORTH      SUNNY     74  42  30 S20G28    29.89S
ONEILL         SUNNY     76  39  26 S18G25    29.93S
BROKEN BOW     SUNNY     75  56  51 S20G29    29.93F
IMPERIAL       SUNNY     78  51  38 S22G29    29.89F
NORTH PLATTE   SUNNY     78  53  41 S16G25    29.89F
MCCOOK         SUNNY     80  53  39 S17G26    29.92F

...EASTERN NEBRASKA...

CITY           SKY/WX    TMP DP  RH WIND       PRES   REMARKS
NORFOLK        SUNNY     76  42  29 S18       29.97F
SO SIOUX CITY  SUNNY     75  43  31 S12G18    30.01S
TEKAMAH        SUNNY     75  41  29 S13       30.02S
COLUMBUS       SUNNY     75  41  29 S18       30.01S
ALBION         SUNNY     75  37  25 S20G25    29.97F
OMAHA EPPLEY   SUNNY     73  41  31 SE12      30.03F
OFFUTT AFB     SUNNY     73  42  32 SE10      30.03F
MILLARD        SUNNY     74  43  33 SE9       30.03S
LINCOLN        SUNNY     76  42  29 SE16      30.02F
NEBRASKA CITY  SUNNY     72  28  20 SE8       30.05S
BEATRICE       SUNNY     75  44  32 S13       30.01F
FALLS CITY     SUNNY     73  37  27 SE7       30.04F

...NORTHERN KANSAS...

CITY           SKY/WX    TMP DP  RH WIND       PRES   REMARKS
GOODLAND       SUNNY     78  46  32 S22G29    29.94S
HILL CITY      SUNNY     79  56  45 S15G25    29.96S
NORTON         CLEAR     79  50  36 SE16G23   29.93F
PHILLIPSBURG   SUNNY     81  57  44 SE14      29.95F
SMITH CENTER   SUNNY     79  55  44 SE21G26   29.97F
BELOIT         SUNNY     79  52  38 SE15      29.97F
HAYS           SUNNY     79  57  47 S15       29.97S
RUSSELL        SUNNY     79  59  50 S14       29.96F
CONCORDIA      SUNNY     76  53  44 SE16      29.99F
SALINA         SUNNY     79  57  46 S14       29.99F
TOPEKA         SUNNY     75  43  31 SE6       30.05S



USA.gov is the U.S. government's official web portal to all federal, state and local government web resources and services.